This demonstration page uses our WeatherBlox Daily Observations layout. Learn more.

38.89511, -77.03637

Hourly Observations for April 5, 2015

Temp ( °F °C ) Dew Point ( °F °C ) Humidity (%) Winds ( mph kmh ) Pressure ( in mb ) Visibility ( mi km ) Precip ( " mm )
12:52 am 00:52 Clear 48 9 21 -6 34 34 WSW 3 6 30.27 1025 10 16.09344 0 0
1:52 am 01:52 Clear 46 8 25 -4 43 43 SW 5 7 30.27 1025 10 16.09344 0 0
2:52 am 02:52 Clear 45 7 27 -3 49 49 SSW 6 9 30.27 1025 10 16.09344 0 0
3:52 am 03:52 Mostly Clear 43 6 25 -4 49 49 SSW 7 11 30.27 1025 10 16.09344 0 0
4:52 am 04:52 Clear 45 7 21 -6 39 39 SW 5 7 30.27 1025 10 16.09344 0 0
5:52 am 05:52 Clear 45 7 21 -6 39 39 SSW 6 9 30.3 1026 10 16.09344 0 0
6:52 am 06:52 Mostly Sunny 45 7 21 -6 39 39 S 3 6 30.3 1026 10 16.09344 0 0
7:52 am 07:52 Mostly Cloudy 45 7 25 -4 46 46 SSW 6 9 30.33 1027 10 16.09344 0 0
8:52 am 08:52 Mostly Cloudy 48 9 25 -4 40 40 SSW 7 11 30.33 1027 10 16.09344 0 0
9:52 am 09:52 Mostly Cloudy 55 13 25 -4 31 31 SW 12 19 30.33 1027 10 16.09344 0 0
10:52 am 10:52 Mostly Cloudy 57 14 23 -5 27 27 SSW 15 24 30.33 1027 10 16.09344 0 0
11:52 am 11:52 Mostly Cloudy 61 16 25 -4 25 25 SW 16 26 30.3 1026 10 16.09344 0 0
12:52 pm 12:52 Mostly Cloudy 63 17 25 -4 24 24 S 14 22 30.27 1025 10 16.09344 0 0
1:52 pm 13:52 Mostly Cloudy 64 18 25 -4 22 22 SSW 18 30 30.27 1025 10 16.09344 0 0
2:52 pm 14:52 Partly Cloudy 66 19 25 -4 21 21 S 17 28 30.21 1023 10 16.09344 0 0
3:52 pm 15:52 Mostly Sunny 70 21 19 -7 15 15 SSW 18 30 30.18 1022 10 16.09344 0 0
4:52 pm 16:52 Mostly Sunny 66 19 19 -7 17 17 S 17 28 30.18 1022 10 16.09344 0 0
5:52 pm 17:52 Partly Cloudy 66 19 21 -6 18 18 SSW 15 24 30.18 1022 10 16.09344 0 0
6:05 pm 18:05 Partly Cloudy 66 19 23 -5 19 19 SSW 13 20 30.18 1022 10 16.09344 0 0
6:52 pm 18:52 Partly Cloudy 66 19 19 -7 17 17 SSW 17 28 30.18 1022 10 16.09344 0 0
7:52 pm 19:52 Partly Cloudy 63 17 23 -5 22 22 SSW 12 19 30.18 1022 10 16.09344 0 0
8:52 pm 20:52 Partly Cloudy 61 16 25 -4 25 25 SSW 10 17 30.21 1023 10 16.09344 0 0
9:52 pm 21:52 Mostly Cloudy 57 14 25 -4 29 29 SSW 9 15 30.21 1023 10 16.09344 0 0
10:52 pm 22:52 Mostly Cloudy 57 14 25 -4 29 29 SSW 10 17 30.24 1024 10 16.09344 0 0
11:52 pm 23:52 Mostly Cloudy 55 13 27 -3 33 33 S 9 15 30.24 1024 10 16.09344 0 0

Powered by AerisWeather